Location: Thompson
(55.7500°N, 97.8670°W)
Time: 01:16:05
(UTC-05:00)

Cosmos 1666 - Visible Passes

Search period start: 21 August 2014 00:00
Search period end: 31 August 2014 00:00
Orbit: 517 x 545 km, 82.5° (Epoch: 20 August)

Date Brightness Start Highest point End Pass type
(mag) Time Alt. Az. Time Alt. Az. Time Alt. Az.
21 Aug 5.3 00:00:00 18° NNE 23:59:45 20° NNE 00:01:00 10° NNE visible
21 Aug 5.4 01:31:44 10° W 01:33:47 14° WNW 01:35:52 10° NNW visible
21 Aug 4.9 22:10:27 10° E 22:11:28 11° E 22:12:35 10° ENE visible
21 Aug 2.6 23:45:45 47° S 23:46:48 84° E 23:50:41 10° NNE visible
22 Aug 5.4 01:21:15 10° W 01:23:26 15° WNW 01:25:38 10° NNW visible
22 Aug 4.9 22:00:26 10° E 22:01:11 11° E 22:01:55 10° ENE visible
22 Aug 2.6 23:35:20 44° S 23:36:29 80° E 23:40:21 10° NNE visible
23 Aug 5.4 01:10:46 10° W 01:13:05 15° WNW 01:15:24 10° NNW visible
23 Aug 2.6 23:24:54 41° S 23:26:09 75° E 23:30:01 10° NNE visible
24 Aug 5.4 01:00:18 10° W 01:02:43 16° WNW 01:05:09 10° NNW visible
24 Aug 2.6 23:14:26 37° S 23:15:49 71° E 23:19:41 10° NNE visible
25 Aug 5.3 00:49:50 10° W 00:52:21 17° WNW 00:54:53 10° NNW visible
25 Aug 2.6 23:03:57 34° S 23:05:29 67° E 23:09:21 10° NNE visible
26 Aug 5.3 00:39:22 10° WSW 00:41:59 17° WNW 00:44:37 10° NNW visible
26 Aug 2.7 22:53:25 30° S 22:55:09 63° E 22:59:00 10° NNE visible
27 Aug 5.3 00:28:54 10° WSW 00:31:36 18° WNW 00:34:20 10° NNW visible
27 Aug 2.7 22:42:51 26° SSE 22:44:48 60° E 22:48:38 10° NNE visible
28 Aug 5.2 00:18:26 10° WSW 00:21:14 19° WNW 00:24:03 10° NNW visible
28 Aug 2.8 22:32:15 23° SSE 22:34:28 56° E 22:38:17 10° NNE visible
29 Aug 5.2 00:07:58 10° WSW 00:10:51 20° WNW 00:13:45 10° NNW visible
29 Aug 2.8 22:21:35 19° SSE 22:24:07 53° E 22:27:55 10° NNE visible
29 Aug 5.2 23:57:31 10° WSW 00:00:28 21° WNW 00:03:27 10° NNW visible
30 Aug 2.9 22:10:51 16° SSE 22:13:45 50° E 22:17:33 10° NNE visible
30 Aug 5.1 23:47:03 10° WSW 23:50:05 22° WNW 23:53:09 10° NNW visible
